494  
ASUS41 KCTP 240310  
RWRCTP  
 
REGIONAL WEATHER ROUNDUP  
NATIONAL WEATHER SERVICE STATE COLLEGE PA  
1100 PM EDT SAT JUN 23 2018  
 
NOTE: "FAIR" INDICATES FEW OR NO CLOUDS BELOW 12,000 FEET WITH NO  
SIGNIFICANT WEATHER AND/OR S TO VISIBILITY
.  
 
* = STATION THAT DOES NOT REPORT PRECIPITATION /E.G. RAIN...SNOW...ETC/  
THUNDER OR FOG.
 
 
PAZ002>004-007>009-013>016-020>023-029>032-240400-  
WESTERN PENNSYLVANIA  
 
CITY SKY/WX TMP DP RH WIND PRES REMARKS
 
ERIE CLOUDY 70 65 84 S3 29.77R  
MEADVILLE CLOUDY 66 66 100 SW3 29.81S  
FRANKLIN* CLOUDY 65 64 97 SW5 29.83R  
NEW CASTLE CLOUDY 68 67 96 VRB3 29.82S  
BEAVER COUNTY NOT AVBL  
BUTLER* FAIR 66 64 93 CALM 29.83S  
PITTSBURGH INT CLOUDY 70 67 90 SW5 29.83R  
PITTSBURGH CLOUDY 70 66 87 S8 29.83R  
INDIANA* CLOUDY 66 66 100 CALM 29.88R  
LATROBE CLOUDY 70 70 100 SW7 29.84S  
WASHINGTON CO* CLOUDY 70 66 87 SW6 29.86S  

 
 
PAZ004>006-010>012-017>019-024>028-033>037-041-042-045-046-049>053-240400-  
CENTRAL PENNSYLVANIA  
 
CITY SKY/WX TMP DP RH WIND PRES REMARKS
 
BRADFORD CLOUDY 65 63 93 CALM 29.83R  
DUBOIS LGT RAIN 65 65 100 W10 29.83 FOG  
CLEARFIELD MOCLDY 66 65 96 SW6 29.83R  
JOHNSTOWN HVY RAIN 65 63 93 SW8G17 29.88R FOG  
ALTOONA MOCLDY 69 64 84 SW8 29.86R  
STATE COLLEGE MOCLDY 66 65 99 S3 29.83R  
WILLIAMSPORT FAIR 67 65 93 NW3 29.79S  
SELINSGROVE MOCLDY 67 65 93 CALM 29.81S  
FT INDIANTOWN CLOUDY 68 66 94 NE3 29.82S  
CAPITAL CITY CLOUDY 70 65 84 CALM 29.82R  
HARRISBURG LGT RAIN 69 66 90 CALM 29.81R FOG  
YORK FAIR 71 70 96 CALM 29.82R  

 
 
PAZ038>040-043-044-047-048-054-055-060>062-067>071-240400-  
EASTERN PENNSYLVANIA  
 
CITY SKY/WX TMP DP RH WIND PRES REMARKS
 
SCRANTON CLOUDY 68 64 87 SW3 29.82S  
MOUNT POCONO FOG 61 61 100 SE3 29.87S VSB 1  
ALLENTOWN CLOUDY 69 64 84 S5 29.84R  
QUAKERTOWN* CLOUDY 66 68 100 CALM 29.84F FOG  
READING CLOUDY 70 68 93 S3 29.82R  
LANCASTER FAIR 68 67 96 E3 29.82S FOG  
COATESVILLE CLOUDY 68 66 94 CALM 29.85S FOG  
POTTSTOWN CLOUDY 67 67 100 CALM 29.84F FOG  
BLUE BELL CLOUDY 64 64 100 CALM 29.85S  
DOYLESTOWN CLOUDY 67 66 97 CALM 29.83S  
WILLOW GROVE NOT AVBL  
NORTH PHILA CLOUDY 71 66 84 E3 29.84S  
PHILADELPHIA CLOUDY 70 68 93 E7 29.83S  

 
 
 
CLICK HERE TO GO TO PREVIOUS BULLETINS.

The Nexlab PA Page Main Text Page